User: anonymous   Login
Location: Hamburg
(53.5500°N, 10.0000°E)
Time: 07:58:12
(UTC+02:00)
Language:

Iridium 10 - Orbit

View from above orbital plane
View from above orbital plane
View from above satellite
View from above satellite

Ground track
Ground track

The orbit data is extracted from the following two-line orbital elements,

1 24839U 97030D   16210.38232336  .00000169  00000-0  53287-4 0  9990
2 24839  86.3988 125.4660 0002312  84.1687  54.1707 14.34216339   545
Epoch (UTC): 28 July 2016 09:10:32
Eccentricity: 0.0002312
inclination: 86.3988°
perigee height: 776 km
apogee height: 779 km
right ascension of ascending node: 125.4660°
argument of perigee: 84.1687°
revolutions per day: 14.34216339
mean anomaly at epoch: 54.1707°
orbit number at epoch: 54

The dashed part of the orbit path shows where the satellite is in the earth's shadow,  

DLR